Overview Statistics Trail Chart Weather Telemetry Raw packets
 

This is the latest recevied weather packets stored in our database for station/object KC3UTO. If no packets are shown the sender has not sent any weather packets the latest 10 day(s).

<< 5 6 7 8 9 10 11 >>
Time Temp. Humidity Pressure Rain* Wind** Luminosity Snow
1788527645 26.11° C 73% 1012.7 hPa 0 mm - 363 W/m² -
1788527341 26.11° C 74% 1012.8 hPa 0 mm - 329 W/m² -
1788527040 26.11° C 74% 1012.6 hPa 0 mm - 309 W/m² -
1788526735 26.11° C 73% 1012.8 hPa 0 mm - 292 W/m² -
1788526431 26.11° C 73% 1012.6 hPa 0 mm - 281 W/m² -
1788526130 26.11° C 74% 1012.5 hPa 0 mm - 269 W/m² -
1788525827 26.11° C 75% 1012.6 hPa 0 mm - 256 W/m² -
1788525522 25.56° C 77% 1012.8 hPa 0 mm - 244 W/m² -
1788525217 25° C 78% 1012.5 hPa 0 mm - 211 W/m² -
1788524913 25° C 79% 1012.8 hPa 0 mm - 212 W/m² -
1788524612 24.44° C 80% 1012.8 hPa 0 mm - 156 W/m² -
1788524307 24.44° C 81% 1012.7 hPa 0 mm - 188 W/m² -
1788524003 24.44° C 82% 1012.7 hPa 0 mm - 127 W/m² -
1788523700 23.89° C 82% 1012.7 hPa 0 mm - 92 W/m² -
1788523395 23.89° C 84% 1012.6 hPa 0 mm - 51 W/m² -
1788523090 23.89° C 85% 1012.5 hPa 0 mm - 45 W/m² -
1788522786 23.89° C 85% 1012.5 hPa 0 mm - 42 W/m² -
1788522480 23.33° C 86% 1012.5 hPa 0 mm - 41 W/m² -
1788522180 23.33° C 86% 1012.4 hPa 0 mm - 39 W/m² -
1788521875 23.33° C 88% 1012.2 hPa 0 mm - 37 W/m² -
1788521574 22.78° C 89% 1012.3 hPa 0 mm - 34 W/m² -
1788521269 22.78° C 90% 1012.3 hPa 0 mm - 32 W/m² -
1788520965 22.78° C 91% 1012.5 hPa 0 mm - 30 W/m² -
1788520660 22.22° C 91% 1012.4 hPa 0 mm - 27 W/m² -
1788520356 22.22° C 91% 1012.5 hPa 0 mm - 20 W/m² -

* Rain latest hour (hover to see other rain measurements)
** Current wind speed in m/s (hover to see current wind gust speed)